Flag for United Kingdom Weather past 2 weeks in Telford, England, United Kingdom

Now
55 °F

Passing clouds.


Feels Like: 54 °F
Forecast: 43 / 61 °F
Wind: 6 mph from North

Location: Shawbury

Current Time: Sep 20, 2014 at 11:36:37 PM

Latest Report: Sep 20, 2014 at 10:50 PM


Visibility: N/A

Pressure: 30.18 "Hg

Humidity: 94%

Dew point: 54 °F

Location of TelfordLocation

Historic Weather in Telford — Graph

°F

Telford temperature yesterday

Maximum temperature yesterday: 61 °F (at 12:50 AM)
Minimum temperature yesterday: 59 °F (at 4:50 AM)
Average temperature yesterday: 60 °F

Past Weeks' High & Low Weather Summary

 TemperatureHumidityPressure
High72 °F (Sep 10, 2:50 PM)100% (Sep 7, 5:50 AM)30.36 "Hg (Sep 7, 5:50 AM)
Low41 °F (Sep 8, 1:50 AM)44% (Sep 10, 3:50 PM)29.83 "Hg (Sep 18, 5:50 AM)
Average58 °F82%30.08 "Hg
* Reported Sep 5 9:50 PM — Sep 20 9:50 PM, Telford, Weather by CustomWeather, © 2014

Note: Actual official high and low records may vary slightly from our data, if they occured in-between our weather recording intervals... More about our weather records

Advertising

Telford weather history for previous 24 hours

 ConditionsComfort  
Time TempWeatherWind HumidityBarometerVisibility
9:50 PM
Sep 20
55 °FPassing clouds.6 mph94%30.15 "HgN/A
8:50 PM57 °FPassing clouds.7 mph94%30.15 "HgN/A
7:50 PM59 °FPartly sunny.7 mph88%30.12 "Hg5 mi
6:50 PM59 °FLight rain. Partly sunny.10 mph94%30.09 "Hg2 mi
5:50 PM61 °FOvercast.8 mph94%30.07 "Hg2 mi
1:50 PM64 °FPartly sunny.7 mph78%30.04 "HgN/A
12:50 PM63 °FPartly sunny.6 mph83%30.04 "HgN/A
11:50 AM63 °FBroken clouds.6 mph83%30.04 "Hg4 mi
10:50 AM63 °FPartly sunny.6 mph88%30.04 "Hg4 mi
9:50 AM61 °FScattered clouds.6 mph94%30.01 "Hg2 mi
8:50 AM61 °FFog.6 mph94%30.01 "Hg1 mi
7:50 AM59 °FFog.5 mph100%29.98 "Hg1 mi
6:50 AM59 °FFog.6 mph100%29.98 "Hg1 mi
5:50 AM59 °FFog.7 mph100%29.98 "Hg1 mi
4:50 AM59 °FDrizzle. Mostly cloudy.3 mph100%29.95 "Hg1 mi
3:50 AM59 °FFog.3 mph100%29.95 "Hg1 mi
2:50 AM59 °FFog.3 mph100%29.95 "Hg1 mi
1:50 AM59 °FFog.3 mph100%29.95 "Hg1 mi
12:50 AM59 °FFog.3 mph100%29.95 "Hg1 mi
11:50 PM
Sep 19
59 °FFog.3 mph100%29.95 "Hg1 mi
Weather by CustomWeather, © 2014

See weather overviewHow to use our weather pages